Location: Unspecified
(0.0000°N, 0.0000°E)
Time: 11:44:07
(UTC+00:00)

Envisat - Pass Details

Date: 13 January 2018
Orbit: 764 x 766 km, 98.2° (Epoch: 26 April)

Event Time Altitude Azimuth Distance (km) Brightness Sun altitude
Rises 19:26:18 0° 151° (SSE) 3,228 6.2 -18.0°
Reaches altitude 10° 19:28:48 10° 141° (SE) 2,299 5.3 -18.6°
Enters shadow 19:32:13 30° 104° (ESE) 1,347 3.8 -19.4°
